Weather in Yazikovo

Russia / Republic of Bashkortostan     54°41′17″N   55°01′18″E
temp.,
°C
wind,
m/s
gust,
m/s
humid.,
%
clouds,
%
prec.,
mm/h
press.,
hPa
HPBL,
m
28 february, sun
sun2823:00−6sse71294100 2.5 1000442
02:00−6se5995100 0.7 999309
05:00−6ese4696100 1.8 999263
08:00−9ene4596100 0.5 999127
11:00−8nne359597 0.9 1000206
14:00−7n469496 0.3 1001338
17:00−8nnw579498 0.4 1003344
20:00−10nw599597 0.1 1006284
1 march, mon
mon123:00−12nnw499693 0.2 1008211
02:00−13nw4796100 0.1 1010181
05:00−14nw489598 0.3 1012240
08:00−16nw379692 0.1 1014184
11:00−15nw469593 0.3 1016267
14:00−15nw4594100 0.0 1017325
17:00−15nw3693100 0.1 1018370
20:00−20wnw239998 0.0 101920
2 march, tue
tue223:00−21wsw239978 0.0 101920
02:00−23sw339834 0.0 101921
05:00−23ssw349725 0.0 101745
08:00−22s469423 0.0 1015111
11:00−18s6119461 0.0 1012289
14:00−13s81293100 0.0 1009432
17:00−11ssw81393100 0.8 1007600
20:00−11ssw71394100 0.9 1005621
3 march, wed
wed323:00−9s81493100 1.7 1003574
02:00−6s71395100 1.3 1000592
05:00−5ssw51195100 2.0 998498
08:00−5ssw4109597 0.6 997301
11:00−4sw499494 0.6 997413
14:00−2wnw589599 0.3 998572
17:00−4nw5891100 0.6 1000524
20:00−6nw51094100 0.0 1001379
4 march, thu
thu423:00−7wnw4796100 0.1 1003179
02:00−7wnw4896100 0.1 1004250
05:00−8nw4896100 0.4 1006241
08:00−13wnw479681 0.1 1007120
11:00−10wnw589383 0.1 1009330
14:00−8w599185 0.0 1009454
17:00−7wsw5108989 0.0 1010634
20:00−8sw61389100 0.0 1009507